Location: Unspecified
(40.7945°N, 0.0000°E)
Time: 15:05:31
(UTC+00:00)

Transit 2A - All Passes

Search period start: 23 January 2021 00:00
Search period end: 02 February 2021 00:00
Orbit: 598 x 960 km, 66.7° (Epoch: 22 January)

Date Brightness Start Highest point End Pass type
(mag) Time Alt. Az. Time Alt. Az. Time Alt. Az.
23 Jan - 02:59:46 10° S 03:04:56 31° ESE 03:09:45 10° NE visible
23 Jan - 04:42:28 10° SW 04:48:01 42° NW 04:53:06 10° NNE visible
23 Jan - 11:47:24 10° N 11:50:50 20° NE 11:54:07 10° E daylight
23 Jan - 13:29:57 10° NW 13:34:13 44° WSW 13:38:18 10° S daylight
24 Jan - 02:26:32 10° SSE 02:30:54 21° ESE 02:35:01 10° ENE visible
24 Jan - 04:07:57 10° SW 04:13:47 59° WNW 04:19:06 10° NNE visible
24 Jan - 05:56:08 10° WNW 05:57:58 12° NW 05:59:44 10° NNW visible
24 Jan - 11:13:50 10° N 11:16:23 15° NE 11:18:52 10° ENE daylight
24 Jan - 12:55:38 10° NNW 13:00:08 72° WSW 13:04:25 10° SSE daylight
25 Jan - 01:53:55 10° SE 01:56:56 14° ESE 01:59:50 10° ENE night (unlit)
25 Jan - 03:33:37 10° SSW 03:39:34 83° WNW 03:45:00 10° NNE visible
25 Jan - 05:20:09 10° W 05:23:27 16° NW 05:26:36 10° N visible
25 Jan - 10:41:04 10° NNE 10:41:53 10° NE 10:42:42 10° NE daylight
25 Jan - 12:21:27 10° NNW 12:25:59 73° ENE 12:30:17 10° SE daylight
26 Jan - 02:59:30 10° SSW 03:05:25 70° ESE 03:10:49 10° NE visible
26 Jan - 04:44:47 10° W 04:49:01 21° NW 04:53:00 10° N visible
26 Jan - 11:47:23 10° NNW 11:51:46 46° NE 11:55:55 10° SE daylight
26 Jan - 13:31:42 10° WNW 13:34:25 16° WSW 13:37:05 10° SW daylight
27 Jan - 02:25:37 10° S 02:31:18 48° ESE 02:36:31 10° NE night (unlit)
27 Jan - 04:09:44 10° WSW 04:14:39 28° NW 04:19:13 10° N visible
27 Jan - 11:13:26 10° NNW 11:17:28 31° NE 11:21:20 10° ESE daylight
27 Jan - 12:56:49 10° NW 13:00:27 25° WSW 13:04:00 10° SSW daylight
28 Jan - 01:52:00 10° S 01:57:14 33° ESE 02:02:04 10° NE night (unlit)
28 Jan - 03:34:57 10° WSW 03:40:21 39° NW 03:45:19 10° NNE visible
28 Jan - 10:39:37 10° N 10:43:07 22° NE 10:46:30 10° E daylight
28 Jan - 12:22:16 10° NW 12:26:26 40° WSW 12:30:27 10° S daylight
29 Jan - 01:18:41 10° SSE 01:23:11 23° ESE 01:27:24 10° ENE night (unlit)
29 Jan - 03:00:22 10° SW 03:06:06 54° WNW 03:11:19 10° NNE visible
29 Jan - 04:49:14 10° NW 04:50:20 11° NW 04:51:26 10° NNW visible
29 Jan - 10:06:00 10° N 10:08:42 15° NE 10:11:20 10° E daylight
29 Jan - 11:47:55 10° NW 11:52:21 65° WSW 11:56:37 10° SSE daylight
30 Jan - 00:45:55 10° SE 00:49:11 15° ESE 00:52:20 10° ENE night (unlit)
30 Jan - 02:25:59 10° SSW 02:31:53 78° WNW 02:37:14 10° NNE night (unlit)
30 Jan - 04:12:51 10° WNW 04:15:48 14° NW 04:18:38 10° N visible
30 Jan - 09:32:57 10° NNE 09:34:13 11° NE 09:35:27 10° NE daylight
30 Jan - 11:13:43 10° NNW 11:18:13 79° ENE 11:22:31 10° SSE daylight
31 Jan - 01:51:51 10° SSW 01:57:43 75° ESE 02:03:04 10° NNE night (unlit)
31 Jan - 03:37:22 10° W 03:41:21 19° NW 03:45:07 10° N visible
31 Jan - 10:39:38 10° NNW 10:44:01 50° ENE 10:48:13 10° SE daylight
31 Jan - 12:24:13 10° WNW 12:26:38 15° WSW 12:29:00 10° SW daylight
01 Feb - 01:17:55 10° S 01:23:36 51° ESE 01:28:47 10° NE night (unlit)
01 Feb - 03:02:16 10° WSW 03:06:59 26° NW 03:11:22 10° N visible
01 Feb - 10:05:40 10° NNW 10:09:45 33° NE 10:13:41 10° ESE daylight
01 Feb - 11:49:11 10° WNW 11:52:40 23° WSW 11:56:04 10° SSW daylight
